[[{"header":{"parameterUnit":"m.s-1","parameterCategory":1,"la1":30.2992,"la2":30.254,"lo1":-89.0895,"lo2":-89.0443,"dy":0.0025,"dx":0.0025,"nx":19,"ny":19,"refTime":"2026-05-01T21:00:00:Z","depth":0,"parameterNumber":2,"parameterNumberName":"U-component_of_WINDS"},"data":[0,0,0,0.1485,0.1482,0.1327,0.1326,0.1124,0.1122,0,0,0,0,0,0,0,0,0,0,0,0.1533,0.1532,0.1485,0.1481,0.1327,0.1326,0.1124,0.1122,0,0,0,0,0,0,0,0,0,0,0,0.1534,0.1532,0.1531,0.1481,0.1327,0.1326,0.1125,0.1242,0,0,0,0,0,0,0,0,0,0,0.1393,0.144,0.1532,0.1531,0.148,0.1327,0.1326,0.1248,0.1235,0.1194,0,0.1163,0,0.114,0.1109,0.1108,0,0,0,0.1478,0.1451,0.1408,0.153,0.1479,0.1327,0.1396,0.124,0.1226,0.1177,0.116,0.1153,0.1137,0.1108,0.1107,0.0895,0.0895,0,0,0.1487,0.1505,0.1418,0.1399,0.1428,0.1401,0.1391,0.1232,0.1212,0.1159,0.1148,0.1133,0.1106,0.1105,0.0896,0.0895,0,0,0,0.1514,0.1511,0.1472,0.1407,0.138,0.1396,0.1385,0.1219,0.1205,0.1146,0.1131,0.1105,0.1103,0.0897,0.0896,0.0872,0,0,0,0.1519,0.1527,0.1476,0.1485,0.1383,0.1298,0.1376,0.1216,0.1198,0.1132,0.1105,0.1101,0.0898,0.0896,0.0875,0.0856,0,0,0,0.1542,0.1529,0.1508,0.1486,0.1421,0.1301,0.1277,0.1212,0.1189,0.1108,0.11,0.0899,0.0897,0.0877,0.086,0.0805,0,0,0,0.1571,0.1487,0.1508,0.1409,0.1423,0.129,0.1278,0.1177,0.1105,0.1104,0.0898,0.0896,0.0878,0.0862,0.0808,0.076,0.0744,0,0,0.1475,0.1476,0.1416,0.1431,0.1299,0.1312,0.1175,0.109,0.1063,0.0952,0.0946,0.0874,0.086,0.0806,0.0647,0.0634,0,0,0,0.1392,0.1349,0.131,0.1245,0.1182,0.1124,0.106,0.1028,0.0934,0.1011,0.084,0.0831,0.0798,0.0774,0.0763,0.0732,0.0887,0.0887,0.0887,0.1278,0.1253,0.1152,0.1109,0.1046,0.0982,0.0927,0.0872,0.0862,0.0823,0.0788,0.0695,0.0669,0.066,0.0628,0.0764,0.0764,0.0763,0.0763,0.1132,0.1066,0.106,0.0959,0.0932,0.0845,0.078,0.0777,0.0689,0.0719,0.0688,0.072,0.0646,0.0617,0.0761,0.0762,0.0762,0.0762,0.0762,0.1052,0.1016,0.0984,0.0889,0.0817,0.0775,0.0694,0.0671,0.0649,0.062,0.0579,0.058,0.0575,0.0603,0.0603,0.0602,0.0602,0.0602,0.0602,0.0981,0.0945,0.0881,0.0809,0.0765,0.0704,0.0641,0.0595,0.0538,0.0528,0.0528,0.052,0.0646,0.0676,0.0596,0.0597,0.0598,0.0599,0.0599,0.0836,0.0867,0.0768,0.0724,0.0638,0.0568,0.0543,0.0453,0.0412,0.0371,0.0372,0.047,0.0468,0.0476,0.0501,0.038,0.038,0.038,0.038,0.0767,0.0766,0.066,0.0592,0.0522,0.0491,0.0376,0.0326,0.0277,0.025,0.0265,0.0297,0.0307,0.0298,0.0311,0.0333,0.0173,0.0173,0.0172,0.0675,0.0667,0.0575,0.0534,0.0465,0.0405,0.0296,0.0214,0.0166,0.0163,0.0227,0.0236,0.0287,0.0306,0.0301,0.0321,0.0362,0,0]},{"header":{"parameterUnit":"m.s-1","parameterCategory":1,"la1":30.2992,"la2":30.254,"lo1":-89.0895,"lo2":-89.0443,"dy":0.0025,"dx":0.0025,"nx":19,"ny":19,"refTime":"2026-05-01T21:00:00:Z","depth":0,"parameterNumber":3,"parameterNumberName":"V-component_of_WINDS"},"data":[0,0,0,-8.3346,-8.3349,-8.3486,-8.3487,-8.3685,-8.3687,0,0,0,0,0,0,0,0,0,0,0,-8.3322,-8.3324,-8.3345,-8.3349,-8.3486,-8.3487,-8.3685,-8.3687,0,0,0,0,0,0,0,0,0,0,0,-8.3321,-8.3324,-8.3326,-8.335,-8.3486,-8.3487,-8.3685,-8.3572,0,0,0,0,0,0,0,0,0,0,-8.3435,-8.3431,-8.3323,-8.3326,-8.3351,-8.3486,-8.3487,-8.3566,-8.3579,-8.3634,0,-8.3691,0,-8.3693,-8.3703,-8.3703,0,0,0,-8.3336,-8.342,-8.3442,-8.3327,-8.3352,-8.3486,-8.3421,-8.3573,-8.3588,-8.3652,-8.3693,-8.37,-8.3696,-8.3704,-8.3705,-8.4074,-8.4076,0,0,-8.3328,-8.3356,-8.3432,-8.3452,-8.3436,-8.3416,-8.3425,-8.3582,-8.3628,-8.3694,-8.3704,-8.3699,-8.3706,-8.3707,-8.4072,-8.4075,0,0,0,-8.3316,-8.3351,-8.3368,-8.3445,-8.3468,-8.3421,-8.3431,-8.3621,-8.3624,-8.3706,-8.3701,-8.3707,-8.371,-8.4069,-8.4073,-8.4217,0,0,0,-8.331,-8.3344,-8.3366,-8.3384,-8.3466,-8.3547,-8.3467,-8.3613,-8.363,-8.37,-8.3707,-8.3712,-8.4067,-8.4071,-8.4208,-8.4281,0,0,0,-8.3307,-8.3343,-8.3369,-8.3385,-8.3445,-8.3544,-8.3555,-8.3616,-8.3628,-8.3704,-8.3712,-8.4065,-8.407,-8.4199,-8.4267,-8.4386,0,0,0,-8.3311,-8.3495,-8.3372,-8.3574,-8.3444,-8.3633,-8.3554,-8.3692,-8.3774,-8.3708,-8.4067,-8.4072,-8.4196,-8.4258,-8.4377,-8.4492,-8.4543,0,0,-8.3558,-8.3526,-8.3642,-8.3536,-8.3754,-8.3609,-8.3847,-8.3894,-8.3875,-8.4008,-8.4017,-8.4211,-8.4266,-8.4384,-8.4815,-8.4856,0,0,0,-8.373,-8.3814,-8.3866,-8.3946,-8.3988,-8.4029,-8.4038,-8.4055,-8.4166,-8.395,-8.4285,-8.4317,-8.4385,-8.4439,-8.4473,-8.453,-8.4098,-8.4098,-8.4097,-8.4119,-8.4085,-8.4276,-8.4259,-8.4337,-8.4343,-8.4403,-8.4427,-8.4369,-8.4449,-8.4488,-8.4754,-8.4818,-8.4844,-8.4903,-8.4546,-8.4546,-8.4547,-8.4547,-8.4477,-8.4591,-8.451,-8.4666,-8.4628,-8.4758,-8.477,-8.4724,-8.4838,-8.4722,-8.478,-8.4657,-8.4889,-8.4939,-8.4558,-8.4556,-8.4554,-8.4553,-8.4553,-8.4729,-8.4778,-8.4796,-8.4908,-8.4996,-8.497,-8.5084,-8.5044,-8.5008,-8.5066,-8.5103,-8.51,-8.5093,-8.5086,-8.5087,-8.5088,-8.5088,-8.5089,-8.509,-8.4983,-8.4999,-8.5101,-8.516,-8.5205,-8.5259,-8.5266,-8.5309,-8.5346,-8.5308,-8.5308,-8.5242,-8.4918,-8.4838,-8.5104,-8.5101,-8.51,-8.5098,-8.5097,-8.5361,-8.5269,-8.5426,-8.5472,-8.5536,-8.5626,-8.5573,-8.5663,-8.5692,-8.5749,-8.567,-8.5437,-8.54,-8.5373,-8.5306,-8.5677,-8.5677,-8.5677,-8.5677,-8.5574,-8.5551,-8.5702,-8.5777,-8.5846,-8.5814,-8.599,-8.5995,-8.5986,-8.6002,-8.5942,-8.5849,-8.5823,-8.5802,-8.5765,-8.5702,-8.6166,-8.6166,-8.6166,-8.5804,-8.5786,-8.5945,-8.5936,-8.5983,-8.6023,-8.6186,-8.6274,-8.6244,-8.6185,-8.6012,-8.5992,-8.5842,-8.5796,-8.5735,-8.5679,-8.5563,0,0]}]]